COSMOS 2596 (708K)

Last updated on Mon Sep 21 2026 00:03:22 GMT+0000 (Coordinated Universal Time)

1 65590U 25206B 26257.17568588 -.00000054 00000+0 00000+0 0 9998 2 65590 64.5776 311.8831 0012346 302.0561 78.6627 2.13100925 7815
UTC large
Height (km)
Speed (km/s)
/
Latitude / Longitude
Inclination (degrees)
Orbital Period (minutes)
Azimuth
Elevation
Range (km)
Doppler Factor

Next 0 passes for location: London (51.5072 / 0.1276)

No passes found over London.
COSMOS 2596 (708K)